Date String (YYYY-MM-DD hh:mm:ss) UTC,Instrument flags,absolute air pressure of the measurement (hPa),sample flow rate (lpm),inlet stack bypass flow (lpm),air temperature of the measurement (°C),ambient temperature measured by the external sensor (°C),aerosol sample conditioner tube jacket temperature (°C),OPC LED temperature (°C),internal box temperature (°C),relative humidity of the measurement (%),span deviation,mass concentration of particles derived from Lorenz-Mie calculation of OPC scattering (μg/m³),mass concentration of particles derived from Lorenz-Mie calculation of OPC scattering (μg/m³),mass concentration of particles derived from Lorenz-Mie calculation of OPC scattering (μg/m³)
DateTimeUTC,F1_M11,P_M11,Q1_M11,Q2_M11,T1_M11,T2_M11,T3_M11,T4_M11,T5_M11,U1_M11,ZSPAN_M11,X0_M11,X2_M11,X1_M11
2024-06-09 01:00:00,SystemResetWarning,0829.8,4.99,000.00,029.3,027.3,000.0,038.0,030.7,036.7,0000.0,0025.01,0006.04,0003.79
2024-06-09 01:01:00,SystemResetWarning,0829.7,5.01,000.00,029.3,027.7,000.0,037.9,030.9,036.6,0000.0,0025.06,0005.97,0003.78
2024-06-09 01:02:00,SystemResetWarning,0829.7,5.00,000.00,029.3,028.0,000.0,037.9,031.0,036.9,0000.0,0024.89,0006.03,0003.79
2024-06-09 01:03:00,SystemResetWarning,0829.7,5.00,000.00,029.4,028.3,000.0,037.9,031.2,036.9,0000.0,0024.42,0006.04,0003.78
2024-06-09 01:04:00,SystemResetWarning,0829.6,5.00,000.00,029.5,028.5,000.0,037.9,031.3,036.1,0000.0,0023.20,0005.99,0003.77
2024-06-09 01:05:00,SystemResetWarning,0829.6,5.00,000.00,029.5,028.7,000.0,037.9,031.4,035.8,0000.0,0020.00,0006.01,0003.75
2024-06-09 01:06:00,SystemResetWarning,0829.5,5.00,000.00,029.6,028.9,000.0,037.9,031.4,035.4,0000.0,0019.30,0005.99,0003.74
2024-06-09 01:07:00,SystemResetWarning,0829.3,5.00,000.00,029.7,029.0,000.0,037.9,031.5,035.3,0000.0,0019.34,0005.92,0003.72
2024-06-09 01:08:00,SystemResetWarning,0829.3,5.00,000.00,029.7,029.1,000.0,037.9,031.6,035.2,0000.0,0018.86,0005.88,0003.70
2024-06-09 01:09:00,SystemResetWarning,0829.3,5.00,000.00,029.8,029.3,000.0,037.9,031.7,035.4,0000.0,0018.55,0005.87,0003.67
2024-06-09 01:10:00,SystemResetWarning,0829.3,4.99,000.00,029.8,029.3,000.0,038.0,031.7,036.0,0000.0,0018.86,0005.87,0003.66
2024-06-09 01:11:00,SystemResetWarning,0829.3,5.00,000.00,029.9,029.4,000.0,038.0,031.8,035.7,0000.0,0018.04,0005.80,0003.65
2024-06-09 01:12:00,SystemResetWarning,0829.3,4.99,000.00,029.9,029.5,000.0,038.1,031.8,035.9,0000.0,0017.31,0005.76,0003.64
2024-06-09 01:13:00,SystemResetWarning,0829.3,4.99,000.00,030.0,029.6,000.0,038.1,031.9,036.0,0000.0,0017.48,0005.70,0003.62
2024-06-09 01:14:00,SystemResetWarning,0829.4,5.00,000.00,030.1,029.6,000.0,038.1,031.9,035.2,0000.0,0017.70,0005.69,0003.61
2024-06-09 01:15:00,SystemResetWarning,0829.3,4.99,000.00,029.9,027.9,000.0,038.2,031.1,034.6,0000.0,0017.78,0005.73,0003.60
2024-06-09 01:16:00,SystemResetWarning,0829.3,5.01,000.00,029.5,026.4,000.0,038.3,030.3,035.3,0000.0,0017.72,0005.66,0003.58
2024-06-09 01:17:00,SystemResetWarning,0829.2,5.02,000.00,029.3,026.4,000.0,038.2,030.2,036.7,0000.0,0019.14,0005.60,0003.56
2024-06-09 01:18:00,SystemResetWarning,0829.1,4.99,000.00,029.2,026.8,000.0,038.1,030.4,037.4,0000.0,0019.59,0005.61,0003.58
2024-06-09 01:19:00,SystemResetWarning,0829.1,5.00,000.00,029.3,027.2,000.0,038.0,030.7,037.4,0000.0,0019.24,0005.62,0003.59
2024-06-09 01:20:00,SystemResetWarning,0829.1,5.00,000.00,029.3,027.6,000.0,037.9,030.9,036.7,0000.0,0018.56,0005.62,0003.60
2024-06-09 01:21:00,SystemResetWarning,0829.1,5.01,000.00,029.3,028.0,000.0,037.9,031.0,036.1,0000.0,0018.73,0005.58,0003.60
2024-06-09 01:22:00,SystemResetWarning,0829.2,5.00,000.00,029.4,028.3,000.0,037.9,031.1,036.0,0000.0,0018.95,0005.55,0003.60
2024-06-09 01:23:00,SystemResetWarning,0829.2,5.00,000.00,029.5,028.5,000.0,037.9,031.2,036.1,0000.0,0019.27,0005.52,0003.58
2024-06-09 01:24:00,SystemResetWarning,0829.3,4.99,000.00,029.5,028.7,000.0,037.9,031.3,036.2,0000.0,0019.64,0005.56,0003.59
2024-06-09 01:25:00,SystemResetWarning,0829.3,4.99,000.00,029.6,028.9,000.0,037.9,031.4,036.4,0000.0,0019.47,0005.58,0003.58
2024-06-09 01:26:00,SystemResetWarning,0829.4,5.01,000.00,029.6,029.0,000.0,037.9,031.5,036.5,0000.0,0019.02,0005.55,0003.58
2024-06-09 01:27:00,SystemResetWarning,0829.4,5.01,000.00,029.7,029.1,000.0,037.9,031.6,036.0,0000.0,0019.09,0005.53,0003.60
2024-06-09 01:28:00,SystemResetWarning,0829.4,5.01,000.00,029.8,029.2,000.0,037.9,031.6,035.9,0000.0,0019.84,0005.61,0003.64
2024-06-09 01:29:00,SystemResetWarning,0829.4,4.99,000.00,029.8,029.3,000.0,038.0,031.7,036.1,0000.0,0018.98,0005.63,0003.65
2024-06-09 01:30:00,SystemResetWarning,0829.3,4.99,000.00,029.9,029.4,000.0,038.0,031.7,035.7,0000.0,0019.13,0005.65,0003.65
2024-06-09 01:31:00,SystemResetWarning,0829.3,4.99,000.00,029.9,029.5,000.0,038.0,031.8,035.7,0000.0,0019.28,0005.61,0003.67
2024-06-09 01:32:00,SystemResetWarning,0829.3,5.00,000.00,030.0,029.6,000.0,038.1,031.9,035.6,0000.0,0019.27,0005.64,0003.69
2024-06-09 01:33:00,SystemResetWarning,0829.4,5.00,000.00,030.0,029.6,000.0,038.1,031.9,035.2,0000.0,0019.36,0005.72,0003.71
2024-06-09 01:34:00,SystemResetWarning,0829.3,5.00,000.00,030.1,029.4,000.0,038.2,031.8,034.9,0000.0,0019.15,0005.74,0003.74
2024-06-09 01:35:00,SystemResetWarning,0829.3,5.01,000.00,029.8,027.3,000.0,038.2,030.8,035.3,0000.0,0018.66,0005.72,0003.76
2024-06-09 01:36:00,SystemResetWarning,0829.3,5.02,000.00,029.5,026.4,000.0,038.3,030.2,035.7,0000.0,0018.23,0005.67,0003.77
2024-06-09 01:37:00,SystemResetWarning,0829.4,5.00,000.00,029.3,026.5,000.0,038.2,030.3,036.1,0000.0,0018.19,0005.58,0003.76
2024-06-09 01:38:00,SystemResetWarning,0829.5,5.00,000.00,029.3,026.9,000.0,038.0,030.5,036.4,0000.0,0017.79,0005.56,0003.75
2024-06-09 01:39:00,SystemResetWarning,0829.6,4.99,000.00,029.3,027.4,000.0,038.0,030.7,036.8,0000.0,0015.72,0005.51,0003.72
2024-06-09 01:40:00,SystemResetWarning,0829.7,5.01,000.00,029.3,027.7,000.0,037.9,030.9,036.8,0000.0,0014.88,0005.41,0003.71
2024-06-09 01:41:00,SystemResetWarning,0829.7,5.00,000.00,029.3,028.1,000.0,037.9,031.0,035.4,0000.0,0014.40,0005.34,0003.69
2024-06-09 01:42:00,SystemResetWarning,0829.7,4.99,000.00,029.4,028.3,000.0,037.9,031.1,034.3,0000.0,0013.83,0005.27,0003.64
2024-06-09 01:43:00,SystemResetWarning,0829.7,4.99,000.00,029.5,028.5,000.0,037.9,031.2,034.0,0000.0,0013.99,0005.16,0003.58
2024-06-09 01:44:00,SystemResetWarning,0829.8,5.01,000.00,029.5,028.7,000.0,037.9,031.3,033.3,0000.0,0013.63,0005.02,0003.52
2024-06-09 01:45:00,SystemResetWarning,0829.9,5.00,000.00,029.6,028.9,000.0,037.9,031.4,033.1,0000.0,0013.06,0004.88,0003.44
2024-06-09 01:46:00,SystemResetWarning,0830.0,5.01,000.00,029.6,029.0,000.0,037.9,031.4,033.2,0000.0,0012.32,0004.73,0003.37
2024-06-09 01:47:00,SystemResetWarning,0830.0,5.00,000.00,029.7,029.1,000.0,037.9,031.5,033.1,0000.0,0012.35,0004.67,0003.32
2024-06-09 01:48:00,SystemResetWarning,0830.1,5.00,000.00,029.8,029.2,000.0,037.9,031.6,032.9,0000.0,0012.68,0004.61,0003.27
2024-06-09 01:49:00,SystemResetWarning,0830.2,5.00,000.00,029.8,029.3,000.0,038.0,031.7,032.7,0000.0,0013.42,0004.52,0003.22
2024-06-09 01:50:00,SystemResetWarning,0830.2,5.00,000.00,029.9,029.4,000.0,038.0,031.7,032.6,0000.0,0013.51,0004.43,0003.17
2024-06-09 01:51:00,SystemResetWarning,0830.2,5.00,000.00,029.9,029.5,000.0,038.1,031.8,032.4,0000.0,0013.74,0004.34,0003.12
2024-06-09 01:52:00,SystemResetWarning,0830.3,5.00,000.00,030.0,029.6,000.0,038.1,031.8,032.3,0000.0,0014.09,0004.30,0003.07
2024-06-09 01:53:00,SystemResetWarning,0830.4,5.00,000.00,030.0,029.6,000.0,038.1,031.9,032.2,0000.0,0014.01,0004.25,0003.03
2024-06-09 01:54:00,SystemResetWarning,0830.4,4.99,000.00,030.1,029.7,000.0,038.2,031.9,032.1,0000.0,0013.47,0004.22,0003.00
2024-06-09 01:55:00,SystemResetWarning,0830.5,5.01,000.00,030.1,029.7,000.0,038.2,031.9,031.9,0000.0,0013.39,0004.20,0002.99
2024-06-09 01:56:00,SystemResetWarning,0830.7,5.01,000.00,030.2,029.8,000.0,038.2,032.0,031.6,0000.0,0013.44,0004.21,0002.99
2024-06-09 01:57:00,SystemResetWarning,0830.6,4.99,000.00,030.1,028.3,000.0,038.3,031.2,031.8,0000.0,0013.52,0004.22,0002.98
2024-06-09 01:58:00,SystemResetWarning,0830.3,5.00,000.00,029.6,026.5,000.0,038.3,030.3,032.4,0000.0,0013.14,0004.19,0002.99
2024-06-09 01:59:00,SystemResetWarning,0830.2,5.01,000.00,029.4,026.3,000.0,038.3,030.1,032.8,0000.0,0011.99,0004.15,0003.01
